Wind_Speed
53 51 50 48 47 47 45 43 42 41 40 38 36 34 31 29 27 25 24 23 22 21 21 21 21 22 23 24 25 27 29 31 32 33 35 36 36 38
59 57 56 55 52 51 50 48 46 45 43 41 39 37 34 32 29 27 25 24 24 23 23 22 21 21 22 23 24 26 28 30 31 32 34 35 36 36
66 64 62 60 58 56 54 53 50 48 47 44 42 39 37 34 32 29 27 26 25 24 23 23 22 21 21 22 23 24 25 27 29 30 31 32 33 35
71 70 68 65 63 61 59 56 54 51 50 48 46 43 40 37 34 31 29 27 26 25 24 23 22 22 22 22 22 23 23 24 26 28 29 30 31 32
72 74 73 72 69 65 62 61 59 55 53 51 50 47 43 40 37 34 31 29 27 25 25 24 23 22 22 22 22 22 23 23 24 25 27 28 29 30
70 72 74 76 75 72 69 65 62 60 56 54 52 50 46 42 39 36 34 31 29 26 25 24 23 23 22 21 21 21 22 22 22 23 25 26 27 28
65 67 70 73 76 76 74 71 67 64 61 58 54 52 49 45 42 39 36 33 30 28 26 25 24 23 23 22 21 21 21 20 21 21 22 23 24 26
57 60 63 67 71 74 75 74 71 68 64 61 58 54 51 47 44 41 38 35 32 29 27 25 24 23 23 22 21 21 20 20 20 20 21 20 21 22
49 52 55 59 63 69 73 74 73 70 66 63 61 56 52 49 45 42 39 37 33 31 28 26 25 24 22 22 21 21 21 21 20 20 20 20 20 20
42 44 47 50 54 59 66 70 71 71 70 66 60 56 53 50 48 44 40 37 34 31 29 27 25 24 23 22 21 21 21 21 20 20 20 21 21 21
37 38 40 41 45 50 55 61 66 69 68 66 63 57 52 49 46 44 41 37 34 32 30 28 26 25 24 22 21 21 21 20 20 20 20 20 20 20
35 35 35 36 38 42 45 50 56 61 64 64 61 57 53 49 46 43 41 38 35 32 30 28 26 25 23 23 22 21 20 20 20 20 20 20 20 21
34 33 32 33 34 37 39 43 48 54 59 60 59 56 53 50 46 43 41 38 35 32 30 29 27 25 24 23 22 21 21 20 20 20 20 20 20 20
32 32 32 32 32 34 36 40 45 50 54 56 57 55 52 50 48 45 42 38 35 33 31 29 27 25 24 23 22 22 21 20 20 20 20 19 19 19
31 32 31 31 31 31 33 38 43 47 50 53 55 54 51 49 48 45 42 39 36 34 32 30 27 26 24 23 23 22 21 21 21 21 20 20 19 18
30 30 30 30 30 30 30 34 41 45 48 50 52 52 50 48 47 45 42 39 37 34 32 29 28 26 25 24 23 22 21 21 21 20 20 19 19 19
29 29 29 28 28 29 30 33 39 44 46 48 51 51 49 47 46 44 42 39 36 33 31 29 27 26 25 24 23 22 21 21 20 20 20 19 19 18
27 27 27 27 27 28 30 34 38 42 45 47 49 50 49 46 45 43 41 39 36 34 32 30 28 26 25 23 23 22 21 20 20 20 19 19 19 18
24 25 26 26 27 28 30 34 38 42 44 46 48 48 47 45 44 42 40 38 36 33 31 29 28 26 24 23 22 22 21 20 19 19 19 19 19 19
22 23 24 26 27 28 30 33 37 41 43 45 47 47 46 44 41 40 38 37 35 32 30 29 27 25 24 23 22 21 20 19 19 19 19 20 20 20
19 21 23 25 27 29 30 34 39 40 41 43 45 45 44 43 40 39 37 36 33 31 29 28 26 25 23 22 22 21 20 19 19 19 20 20 21 21
16 19 22 25 26 28 32 36 39 40 42 45 45 45 43 41 39 37 35 33 31 30 28 27 25 24 23 22 22 21 21 20 20 20 20 21 22 23
14 16 19 22 24 28 33 35 38 40 41 43 44 44 41 39 37 36 34 33 31 29 27 26 25 24 23 22 22 21 21 21 21 21 22 23 24 24
Wind_Direction
240 239 238 238 237 237 236 235 235 235 234 234 234 235 238 241 244 248 252 256 261 267 270 274 276 274 271 265 260 255 253 251 249 247 244 245 245 242
240 239 238 237 237 237 237 235 235 235 235 236 235 235 237 240 243 246 250 255 260 266 269 272 274 274 271 266 260 257 255 252 250 249 247 247 247 245
240 239 238 235 236 236 236 236 235 235 236 236 236 236 236 238 240 244 247 252 258 263 266 269 272 271 269 267 264 260 257 253 249 248 247 247 247 246
240 239 238 237 236 235 235 235 234 234 235 235 235 235 235 236 238 241 245 250 256 260 264 267 268 269 268 266 265 262 259 256 252 249 248 246 246 245
240 239 238 237 235 235 234 234 233 233 233 235 235 235 235 235 237 240 243 248 253 258 261 263 264 266 266 265 265 263 260 257 254 250 249 247 247 247
240 239 238 237 236 235 233 233 232 232 232 233 233 234 234 234 236 238 241 245 250 254 258 260 262 263 264 264 263 263 260 258 255 250 247 246 247 246
241 240 239 237 236 234 234 234 233 232 231 231 231 232 233 233 235 237 239 243 247 251 255 257 258 260 260 262 263 263 260 257 255 251 247 245 245 246
241 241 241 239 237 235 233 233 232 232 231 230 230 231 232 233 233 234 236 239 243 247 251 254 256 258 259 261 261 261 259 257 255 253 251 248 245 247
238 240 241 240 239 237 235 233 231 231 230 230 230 231 232 231 231 232 234 236 240 243 248 250 253 256 257 259 259 259 259 257 255 254 252 251 250 250
235 237 239 241 239 238 236 234 232 231 230 230 230 229 230 230 230 231 232 234 237 240 244 246 249 252 253 256 256 257 257 256 252 251 252 251 251 252
233 235 237 239 239 238 236 234 232 230 229 230 231 229 228 228 227 228 230 233 235 237 241 243 246 249 251 252 253 255 255 255 253 250 251 251 250 250
231 234 236 237 236 235 234 231 229 227 226 227 228 228 226 227 226 226 227 230 233 235 237 240 243 246 249 250 250 250 251 252 252 249 248 249 250 249
229 231 233 235 234 233 230 228 224 221 220 220 221 223 224 224 224 225 225 227 230 232 234 236 239 242 246 246 247 248 250 250 249 247 246 248 248 247
227 230 232 232 233 232 228 223 219 216 215 215 215 217 219 220 221 223 225 226 228 231 232 233 237 241 243 244 246 248 249 249 247 245 245 247 247 246
225 228 230 231 232 230 226 221 215 212 210 210 210 212 214 215 217 219 222 224 226 228 229 231 234 238 241 242 244 246 247 246 244 243 244 243 243 241
225 227 228 229 229 227 224 218 211 207 205 206 207 207 209 211 212 214 217 220 223 226 228 229 233 236 239 241 242 244 246 246 243 238 238 239 239 236
223 224 225 226 226 223 220 213 207 202 201 202 203 204 205 207 209 211 214 217 220 222 224 226 230 234 237 239 240 241 242 242 240 235 236 237 235 233
219 221 221 221 220 217 213 207 202 199 198 198 199 200 202 204 206 208 211 213 216 218 221 223 227 232 234 235 236 237 238 237 237 234 234 233 233 234
215 217 217 217 214 210 206 200 196 196 196 196 196 197 199 202 204 206 208 211 213 215 218 222 226 229 232 232 232 233 233 233 233 230 229 231 234 238
212 213 212 210 207 202 199 195 193 193 193 194 193 194 197 199 201 203 206 209 210 213 217 221 224 228 229 230 231 231 230 230 231 231 231 233 236 241
206 209 207 205 202 199 196 193 191 190 190 191 191 191 193 196 198 202 205 206 208 210 214 218 222 225 226 227 227 229 229 230 232 233 234 237 240 244
199 200 200 198 197 196 191 187 188 189 187 187 188 187 190 193 197 200 202 204 206 209 213 217 220 222 223 224 225 227 229 231 233 236 238 242 246 251
183 182 185 188 187 184 182 183 185 186 185 185 184 184 186 191 195 197 199 201 204 208 213 216 218 220 223 224 226 228 230 234 237 241 245 249 253 258
Height
5748 5752 5757 5762 5766 5771 5775 5780 5785 5789 5792 5796 5800 5804 5807 5810 5812 5815 5817 5818 5819 5819 5819 5819 5818 5818 5817 5817 5818 5819 5820 5822 5824 5826 5829 5832 5834 5837
5732 5737 5742 5748 5753 5758 5763 5768 5773 5778 5782 5787 5791 5795 5799 5802 5805 5807 5809 5811 5812 5813 5813 5813 5812 5812 5811 5811 5812 5812 5813 5815 5817 5819 5821 5824 5826 5829
5714 5720 5726 5732 5738 5744 5749 5755 5761 5767 5772 5776 5781 5785 5790 5793 5797 5799 5802 5804 5805 5806 5806 5806 5806 5806 5806 5806 5806 5806 5807 5808 5809 5811 5813 5816 5818 5821
5694 5701 5708 5714 5721 5728 5734 5741 5748 5754 5760 5765 5770 5775 5780 5784 5788 5791 5794 5796 5798 5799 5799 5800 5800 5800 5800 5800 5800 5800 5801 5801 5803 5804 5806 5809 5811 5813
5673 5680 5688 5695 5703 5711 5718 5726 5734 5741 5747 5753 5758 5764 5770 5775 5779 5783 5786 5788 5790 5792 5792 5793 5793 5794 5794 5794 5794 5795 5795 5796 5796 5798 5799 5802 5804 5806
5653 5659 5667 5676 5684 5692 5701 5709 5718 5726 5734 5740 5746 5752 5758 5765 5770 5774 5778 5780 5783 5785 5786 5786 5787 5787 5788 5788 5789 5789 5789 5790 5790 5791 5793 5795 5797 5799
5633 5640 5647 5655 5664 5673 5683 5693 5701 5711 5719 5727 5734 5741 5747 5754 5761 5765 5769 5772 5775 5777 5779 5780 5780 5781 5782 5782 5783 5783 5784 5784 5785 5786 5787 5788 5790 5792
5616 5622 5629 5636 5644 5654 5664 5675 5685 5695 5705 5713 5722 5729 5737 5744 5750 5755 5760 5764 5768 5770 5771 5773 5774 5775 5776 5777 5777 5777 5778 5779 5779 5780 5781 5783 5784 5786
5602 5608 5613 5619 5627 5635 5645 5657 5668 5679 5690 5700 5709 5718 5726 5733 5739 5745 5750 5755 5759 5762 5764 5766 5768 5769 5770 5771 5771 5772 5773 5773 5774 5775 5777 5778 5779 5781
5590 5595 5600 5605 5612 5619 5628 5638 5650 5663 5676 5687 5697 5707 5714 5721 5728 5735 5741 5746 5751 5755 5758 5759 5761 5763 5764 5765 5766 5767 5767 5768 5769 5770 5772 5773 5774 5776
5579 5584 5589 5594 5599 5606 5614 5624 5636 5647 5659 5672 5683 5693 5702 5710 5718 5725 5732 5738 5742 5747 5750 5753 5755 5756 5758 5759 5760 5761 5762 5763 5764 5765 5767 5768 5770 5771
5570 5575 5580 5585 5589 5594 5601 5610 5620 5632 5645 5657 5670 5681 5690 5700 5708 5716 5723 5729 5734 5739 5742 5745 5748 5750 5752 5753 5755 5756 5757 5758 5759 5760 5762 5763 5765 5766
5561 5566 5571 5576 5580 5585 5591 5599 5608 5618 5630 5644 5657 5669 5679 5690 5699 5708 5715 5721 5727 5732 5735 5738 5741 5744 5746 5748 5749 5750 5752 5753 5754 5755 5757 5758 5760 5762
5553 5558 5563 5568 5572 5577 5583 5589 5597 5607 5619 5632 5646 5658 5670 5681 5691 5699 5706 5713 5719 5724 5728 5732 5735 5738 5740 5742 5744 5745 5747 5748 5749 5750 5752 5753 5755 5756
5546 5551 5555 5560 5564 5569 5575 5580 5588 5599 5611 5624 5637 5649 5661 5672 5681 5690 5697 5704 5710 5716 5721 5725 5729 5732 5734 5737 5739 5740 5741 5743 5744 5746 5747 5749 5750 5752
5539 5544 5548 5553 5558 5563 5568 5573 5582 5591 5603 5615 5628 5640 5652 5663 5672 5681 5690 5697 5704 5709 5714 5718 5722 5726 5728 5731 5733 5734 5736 5738 5739 5741 5742 5744 5746 5748
5532 5537 5542 5546 5551 5556 5561 5568 5575 5585 5596 5607 5620 5632 5644 5655 5665 5674 5683 5690 5697 5703 5708 5712 5716 5719 5723 5725 5727 5729 5731 5732 5734 5736 5738 5740 5742 5744
5525 5530 5535 5540 5545 5550 5556 5562 5570 5580 5591 5601 5613 5625 5637 5648 5658 5667 5676 5683 5690 5696 5702 5706 5710 5714 5717 5720 5722 5724 5726 5728 5730 5731 5734 5736 5738 5740
5520 5525 5530 5534 5540 5545 5551 5558 5566 5576 5586 5597 5608 5620 5632 5642 5652 5661 5670 5677 5684 5690 5696 5701 5705 5709 5712 5715 5717 5719 5721 5723 5725 5727 5729 5732 5734 5736
5517 5521 5525 5530 5535 5541 5548 5555 5564 5573 5583 5593 5604 5616 5627 5637 5647 5656 5664 5672 5679 5685 5691 5696 5700 5703 5707 5710 5712 5714 5717 5719 5721 5724 5726 5728 5730 5732
5514 5518 5522 5527 5532 5538 5545 5553 5561 5571 5580 5590 5601 5612 5623 5633 5643 5652 5660 5667 5674 5680 5686 5691 5695 5698 5702 5705 5708 5710 5713 5715 5718 5720 5722 5724 5725 5727
5511 5514 5518 5523 5529 5535 5542 5551 5559 5569 5578 5589 5599 5610 5620 5630 5640 5648 5656 5663 5670 5676 5682 5686 5690 5694 5697 5700 5703 5706 5709 5711 5713 5715 5717 5719 5720 5722
5511 5513 5517 5521 5527 5534 5542 5550 5559 5568 5577 5587 5598 5608 5618 5628 5637 5645 5653 5660 5667 5673 5678 5682 5686 5690 5693 5696 5699 5702 5704 5707 5708 5710 5712 5713 5715 5716